When you browse on this site, cookies collect data to enhance your experience and personalize the content and advertising you see.
Visit our Privacy Policy to learn more. By continuing to use the site, you agree to this use of cookies and data.
  • In United Kingdom
  • List of Countries
  • For 7 days
  • Water Temperature
  • Satellite Maps
  • Weather Map
  • Weather Widgets
  • user-avatar
    Login

    Hourly Weather Kankan

    Today, 22 April, Monday

    Time Temperature Precipitation Wind Pressure Humidity
    00:00 +29°C° 0 mm 1 mps 683 mmHg 16%
    01:00 +29°C° 0 mm 2 mps 683 mmHg 19%
    02:00 +28°C° 0 mm 2 mps 683 mmHg 23%
    03:00 +28°C° 0 mm 2 mps 683 mmHg 27%
    04:00 +28°C° 0 mm 2 mps 683 mmHg 31%
    05:00 +28°C° 0 mm 2 mps 683 mmHg 36%
    06:00 +28°C° 0 mm 2 mps 683 mmHg 42%
    07:00 +27°C° 0 mm 2 mps 683 mmHg 47%
    08:00 +30°C° 0 mm 2 mps 684 mmHg 40%
    09:00 +34°C° 0 mm 2 mps 685 mmHg 33%
    10:00 +36°C° 0 mm 2 mps 686 mmHg 26%
    11:00 +38°C° 0 mm 2 mps 685 mmHg 23%
    12:00 +39°C° 0 mm 2 mps 685 mmHg 20%
    13:00 +41°C° 0 mm 2 mps 685 mmHg 17%
    14:00 +40°C° 0 mm 2 mps 684 mmHg 17%
    15:00 +40°C° 0 mm 1 mps 683 mmHg 17%
    16:00 +40°C° 0 mm 1 mps 682 mmHg 16%
    17:00 +39°C° 0 mm 1 mps 682 mmHg 18%
    18:00 +36°C° 0 mm 1 mps 682 mmHg 20%
    19:00 +35°C° 0 mm 1 mps 682 mmHg 22%
    20:00 +35°C° 0 mm 1 mps 683 mmHg 24%
    21:00 +34°C° 0 mm 1 mps 683 mmHg 26%
    22:00 +34°C° 0 mm 2 mps 683 mmHg 28%
    23:00 +32°C° 0 mm 2 mps 683 mmHg 33%

    Tomorrow, 23 April, Tuesday

    Time Temperature Precipitation Wind Pressure Humidity
    00:00 +31°C° 0 mm 2 mps 683 mmHg 38%
    01:00 +30°C° 0 mm 2 mps 683 mmHg 44%
    02:00 +30°C° 0 mm 2 mps 683 mmHg 46%
    03:00 +29°C° 0 mm 2 mps 682 mmHg 48%
    04:00 +28°C° 0 mm 2 mps 682 mmHg 50%
    05:00 +28°C° 0 mm 2 mps 682 mmHg 51%
    06:00 +28°C° 0 mm 2 mps 682 mmHg 52%
    07:00 +28°C° 0 mm 2 mps 683 mmHg 54%
    08:00 +31°C° 0 mm 3 mps 684 mmHg 48%
    09:00 +34°C° 0 mm 3 mps 684 mmHg 42%
    10:00 +36°C° 0 mm 4 mps 685 mmHg 37%
    11:00 +37°C° 0 mm 3 mps 685 mmHg 35%
    12:00 +38°C° 0 mm 3 mps 685 mmHg 33%
    13:00 +38°C° 0 mm 2 mps 684 mmHg 30%
    14:00 +37°C° 0 mm 2 mps 683 mmHg 35%
    15:00 +35°C° 0 mm 2 mps 683 mmHg 40%
    16:00 +34°C° 0 mm 2 mps 682 mmHg 45%
    17:00 +34°C° 0.1 mm 2 mps 682 mmHg 46%
    18:00 +32°C° 0.1 mm 2 mps 682 mmHg 48%
    19:00 +32°C° 0.1 mm 2 mps 682 mmHg 49%
    20:00 +31°C° 0.9 mm 1 mps 683 mmHg 50%
    21:00 +30°C° 0.9 mm 1 mps 683 mmHg 51%
    22:00 +29°C° 0.9 mm 1 mps 684 mmHg 52%
    23:00 +28°C° 0.7 mm 1 mps 684 mmHg 54%

    Day after tomorrow, 24 April, Wednesday

    Time Temperature Precipitation Wind Pressure Humidity
    00:00 +28°C° 0.7 mm 2 mps 684 mmHg 55%
    01:00 +28°C° 0.7 mm 2 mps 684 mmHg 57%
    02:00 +28°C° 0 mm 2 mps 683 mmHg 61%
    03:00 +27°C° 0 mm 2 mps 683 mmHg 65%
    04:00 +26°C° 0 mm 2 mps 682 mmHg 70%
    05:00 +27°C° 0 mm 2 mps 683 mmHg 69%
    06:00 +27°C° 0 mm 1 mps 683 mmHg 68%
    07:00 +27°C° 0 mm 1 mps 683 mmHg 67%
    08:00 +30°C° 0 mm 1 mps 685 mmHg 56%
    09:00 +32°C° 0 mm 1 mps 686 mmHg 45%
    10:00 +35°C° 0 mm 1 mps 687 mmHg 34%
    11:00 +36°C° 0 mm 1 mps 687 mmHg 30%
    12:00 +38°C° 0 mm 2 mps 686 mmHg 26%
    13:00 +40°C° 0 mm 2 mps 686 mmHg 21%
    14:00 +40°C° 0 mm 2 mps 685 mmHg 21%
    15:00 +40°C° 0 mm 2 mps 685 mmHg 20%
    16:00 +40°C° 0 mm 2 mps 684 mmHg 19%
    17:00 +38°C° 0 mm 2 mps 684 mmHg 22%
    18:00 +36°C° 0 mm 1 mps 684 mmHg 25%
    19:00 +34°C° 0 mm 1 mps 684 mmHg 28%
    20:00 +33°C° 0 mm 1 mps 684 mmHg 34%
    21:00 +32°C° 0 mm 1 mps 685 mmHg 40%
    22:00 +31°C° 0 mm 2 mps 685 mmHg 46%
    23:00 +30°C° 0 mm 2 mps 685 mmHg 51%

    25 April, Thursday

    Time Temperature Precipitation Wind Pressure Humidity
    00:00 +30°C° 0 mm 2 mps 685 mmHg 55%
    01:00 +29°C° 0 mm 2 mps 684 mmHg 60%
    02:00 +28°C° 0 mm 2 mps 684 mmHg 62%
    03:00 +28°C° 0 mm 1 mps 684 mmHg 64%
    04:00 +27°C° 0 mm 1 mps 684 mmHg 66%
    05:00 +27°C° 0 mm 1 mps 684 mmHg 65%
    06:00 +27°C° 0 mm 1 mps 685 mmHg 64%
    07:00 +28°C° 0 mm 1 mps 685 mmHg 63%
    08:00 +30°C° 0 mm 1 mps 686 mmHg 53%
    09:00 +33°C° 0 mm 1 mps 687 mmHg 43%
    10:00 +36°C° 0 mm 2 mps 688 mmHg 33%
    11:00 +38°C° 0 mm 2 mps 687 mmHg 27%
    12:00 +39°C° 0 mm 2 mps 687 mmHg 21%
    13:00 +42°C° 0 mm 3 mps 686 mmHg 15%
    14:00 +42°C° 0 mm 3 mps 686 mmHg 13%
    15:00 +42°C° 0 mm 3 mps 685 mmHg 12%
    16:00 +42°C° 0 mm 3 mps 684 mmHg 10%
    17:00 +40°C° 0 mm 3 mps 684 mmHg 9%
    18:00 +38°C° 0 mm 3 mps 684 mmHg 8%
    19:00 +36°C° 0 mm 2 mps 684 mmHg 8%
    20:00 +35°C° 0 mm 2 mps 684 mmHg 9%
    21:00 +32°C° 0 mm 1 mps 685 mmHg 11%
    22:00 +31°C° 0 mm 1 mps 685 mmHg 13%
    23:00 +30°C° 0 mm 1 mps 685 mmHg 22%

    26 April, Friday

    Time Temperature Precipitation Wind Pressure Humidity
    00:00 +29°C° 0 mm 1 mps 684 mmHg 30%
    01:00 +28°C° 0 mm 1 mps 684 mmHg 39%
    02:00 +27°C° 0 mm 1 mps 683 mmHg 46%
    03:00 +26°C° 0 mm 1 mps 683 mmHg 53%
    04:00 +26°C° 0 mm 1 mps 683 mmHg 60%
    05:00 +26°C° 0 mm 1 mps 683 mmHg 61%
    06:00 +26°C° 0 mm 1 mps 684 mmHg 63%
    07:00 +26°C° 0 mm 1 mps 684 mmHg 65%
    08:00 +29°C° 0 mm 2 mps 685 mmHg 46%
    09:00 +34°C° 0 mm 2 mps 686 mmHg 27%
    10:00 +37°C° 0 mm 3 mps 687 mmHg 9%
    11:00 +38°C° 0 mm 3 mps 687 mmHg 7%
    12:00 +40°C° 0 mm 3 mps 686 mmHg 5%
    13:00 +42°C° 0 mm 4 mps 685 mmHg 3%
    14:00 +42°C° 0 mm 4 mps 685 mmHg 3%
    15:00 +42°C° 0 mm 3 mps 684 mmHg 4%
    16:00 +42°C° 0 mm 3 mps 683 mmHg 4%
    17:00 +39°C° 0 mm 3 mps 683 mmHg 5%
    18:00 +37°C° 0 mm 2 mps 683 mmHg 6%
    19:00 +33°C° 0 mm 1 mps 683 mmHg 6%
    20:00 +32°C° 0 mm 1 mps 683 mmHg 7%
    21:00 +29°C° 0 mm 0 mps 683 mmHg 8%
    22:00 +28°C° 0 mm 0 mps 684 mmHg 9%
    23:00 +27°C° 0 mm 0 mps 683 mmHg 9%

    27 April, Saturday

    Time Temperature Precipitation Wind Pressure Humidity
    00:00 +27°C° 0 mm 0 mps 683 mmHg 9%
    01:00 +28°C° 0 mm 1 mps 683 mmHg 9%
    02:00 +27°C° 0 mm 1 mps 682 mmHg 11%
    03:00 +27°C° 0 mm 1 mps 682 mmHg 13%
    04:00 +26°C° 0 mm 1 mps 682 mmHg 15%
    05:00 +26°C° 0 mm 1 mps 682 mmHg 24%
    06:00 +26°C° 0 mm 2 mps 683 mmHg 33%
    07:00 +26°C° 0 mm 2 mps 683 mmHg 42%
    08:00 +30°C° 0 mm 1 mps 684 mmHg 32%
    09:00 +33°C° 0 mm 1 mps 685 mmHg 22%
    10:00 +37°C° 0 mm 1 mps 686 mmHg 13%
    11:00 +39°C° 0 mm 2 mps 686 mmHg 9%
    12:00 +40°C° 0 mm 3 mps 686 mmHg 6%
    13:00 +42°C° 0 mm 3 mps 685 mmHg 3%
    14:00 +42°C° 0 mm 3 mps 685 mmHg 3%
    15:00 +42°C° 0 mm 3 mps 684 mmHg 3%
    16:00 +43°C° 0 mm 3 mps 683 mmHg 3%
    17:00 +39°C° 0 mm 2 mps 683 mmHg 4%
    18:00 +37°C° 0 mm 2 mps 683 mmHg 5%
    19:00 +33°C° 0 mm 1 mps 683 mmHg 6%
    20:00 +32°C° 0 mm 1 mps 683 mmHg 6%
    21:00 +31°C° 0 mm 1 mps 684 mmHg 6%
    22:00 +30°C° 0 mm 1 mps 684 mmHg 7%
    23:00 +29°C° 0 mm 1 mps 683 mmHg 18%
    Show more